Lapse_Rate
6.3 6.4 7.1 7.2 7.0 7.0 6.7 6.6 6.6 7.0 7.3 7.4 7.6 7.8 8.1 8.4 8.9 9.0 9.2 8.6 9.1 8.8 9.2 9.1 9.3 9.3 9.3 8.9 9.2 9.1 8.8 8.6 8.4 8.7 8.2 7.9 7.8 7.4 6.9 6.7 6.6 6.6 6.4 6.2
6.5 6.8 7.1 7.1 7.2 7.0 6.8 6.5 6.8 7.0 7.5 7.7 7.7 7.8 8.2 8.4 8.9 8.8 9.0 9.0 9.2 8.9 9.2 9.2 9.2 9.3 9.2 9.6 9.3 9.2 9.1 8.8 8.6 8.5 8.3 7.8 7.4 7.2 7.0 6.6 6.6 6.5 6.6 6.5
6.5 6.7 7.0 7.0 6.9 7.1 7.2 7.1 7.3 7.7 7.6 7.8 7.9 8.3 8.7 8.5 8.3 8.9 8.9 9.0 8.8 8.8 8.9 9.3 9.3 9.3 9.2 9.2 9.3 9.6 9.3 9.1 8.7 8.4 8.2 8.0 7.7 7.1 7.0 7.2 6.9 6.8 6.6 6.6
6.7 6.9 7.0 7.1 7.3 7.3 7.4 7.9 8.0 7.9 7.8 7.7 8.0 7.6 8.5 8.7 8.8 8.8 8.8 8.9 9.0 8.9 9.2 9.4 9.5 9.3 9.2 9.2 9.2 9.1 9.5 9.3 8.8 8.5 8.3 8.2 8.2 8.0 7.4 7.0 6.9 6.7 6.6 6.2
7.2 7.2 7.1 7.1 7.4 7.6 7.6 8.0 8.1 8.1 8.1 8.0 8.4 8.1 9.0 9.2 8.9 9.1 9.2 9.1 9.0 8.9 8.7 8.7 8.7 8.6 8.6 8.4 8.6 8.9 9.5 9.3 9.1 8.6 8.4 8.2 8.3 7.9 7.6 7.2 6.9 6.9 6.6 6.5
7.2 7.2 7.1 7.5 7.4 7.6 7.6 7.8 8.0 8.3 8.2 7.2 8.8 8.8 8.7 8.9 9.1 9.2 9.2 9.0 9.0 9.0 8.3 8.8 9.3 8.7 9.0 8.8 8.9 8.2 9.4 9.4 9.1 8.9 8.6 8.3 8.3 8.2 8.0 7.7 7.4 7.0 6.8 6.5
7.2 7.1 7.2 7.6 7.8 7.8 7.7 7.9 8.0 6.9 6.8 6.3 8.9 8.7 8.6 8.5 9.0 9.3 8.9 8.8 8.5 9.0 8.7 8.7 9.0 9.4 9.0 8.6 9.2 9.2 9.1 9.2 9.0 9.1 8.8 8.6 8.4 8.3 8.0 7.9 7.6 7.2 6.8 6.7
7.0 7.6 8.5 8.4 7.9 7.4 8.1 8.2 8.2 6.7 6.0 7.1 8.5 8.9 8.4 8.5 8.6 8.7 8.9 8.6 8.6 8.4 8.6 8.5 8.8 8.7 9.0 9.0 9.0 8.8 8.4 8.1 8.9 9.3 9.1 8.7 8.4 8.3 8.1 7.9 7.7 7.5 7.0 6.7
6.7 7.0 8.2 8.3 8.5 8.3 7.5 8.0 8.3 8.1 8.1 7.2 8.2 8.5 8.8 8.9 9.0 9.1 8.9 8.8 9.0 8.7 8.8 8.7 8.3 8.6 8.4 8.6 8.4 8.8 8.2 7.9 8.0 8.3 8.0 8.6 8.3 8.3 8.1 7.9 7.8 7.7 7.2 6.6
6.5 6.5 7.2 7.9 8.2 8.2 7.8 7.9 8.0 8.3 7.0 6.8 7.7 8.1 8.6 8.7 8.7 8.6 8.8 8.9 8.8 8.5 8.6 8.4 8.2 8.6 8.7 8.6 8.3 8.0 8.3 7.8 7.7 7.9 7.8 7.6 7.6 8.1 8.1 7.9 7.8 7.7 7.2 6.9
6.6 6.5 6.8 7.3 7.5 7.4 8.0 7.9 7.9 7.8 8.2 6.6 5.9 7.6 8.2 8.4 7.9 8.2 8.4 8.5 8.7 8.6 7.9 8.2 8.1 8.4 8.6 8.3 8.1 7.6 7.8 7.8 7.4 7.6 7.8 7.7 7.3 7.5 8.0 7.9 7.7 7.7 7.3 6.9
7.0 6.5 6.3 6.8 7.4 7.7 7.6 7.2 7.3 7.3 7.6 7.9 7.5 7.7 8.3 8.5 7.6 8.0 8.1 8.0 8.3 8.1 7.0 7.2 7.2 7.6 7.7 7.9 8.5 7.6 7.0 7.7 7.5 8.1 7.4 7.5 7.4 7.2 7.6 8.0 7.8 7.7 7.4 7.2
6.7 6.5 6.6 6.7 7.7 7.6 7.2 7.3 7.2 7.4 7.6 7.7 7.3 7.9 8.1 8.2 7.4 7.4 7.4 7.8 7.9 7.3 6.9 6.9 6.8 7.1 6.9 7.1 7.8 8.3 7.1 7.4 7.6 7.6 7.5 7.8 7.1 7.2 7.4 7.8 7.7 7.4 7.3 7.0
6.5 6.8 6.8 6.9 7.1 7.0 7.1 7.2 7.4 7.6 7.6 7.6 7.9 8.0 8.1 8.0 8.1 7.9 7.9 7.7 7.7 7.3 6.7 6.0 5.5 6.0 5.9 5.9 5.7 6.3 6.9 7.5 7.6 7.1 7.1 7.1 7.0 6.9 7.2 7.4 7.5 7.0 6.8 6.8
7.0 7.1 7.2 7.0 7.3 7.2 7.3 7.2 7.2 7.3 7.5 7.7 7.6 7.8 7.9 8.2 7.9 7.8 7.7 7.4 7.4 7.3 7.2 6.4 6.1 5.8 5.3 5.8 5.3 6.2 6.1 6.7 6.7 6.4 7.0 5.6 6.5 6.5 6.7 7.0 7.1 7.3 7.0 6.9
7.8 7.1 7.1 7.0 7.3 7.3 7.2 7.1 7.2 7.2 7.4 7.3 7.2 7.2 7.5 7.7 7.4 7.5 7.5 7.6 7.5 7.5 7.7 7.0 6.6 6.7 6.0 6.1 5.9 6.2 6.1 5.8 6.3 6.9 7.3 7.0 6.9 5.7 4.9 6.2 6.7 7.0 7.0 7.0
8.0 7.9 7.7 6.7 7.5 7.3 6.9 7.2 7.0 6.8 7.1 7.4 7.2 7.4 7.3 7.6 7.5 7.7 7.5 7.4 6.6 6.8 7.0 7.6 7.4 6.8 6.9 6.7 6.5 6.5 7.0 7.4 7.2 6.9 7.0 7.3 7.4 6.6 5.8 5.7 6.2 6.6 7.0 6.9
7.7 7.9 7.6 7.1 7.3 6.3 7.2 7.2 6.8 7.1 7.4 7.4 7.0 7.3 7.1 7.3 7.6 7.5 7.4 7.2 6.7 6.5 6.6 6.6 6.7 6.6 6.9 6.7 6.6 6.4 6.5 6.8 6.7 6.5 6.4 6.5 7.0 7.1 6.6 6.7 6.4 7.0 6.6 6.1
8.1 8.0 7.6 7.1 7.2 7.3 6.8 7.4 7.4 6.9 7.3 6.8 7.1 7.4 7.4 6.9 7.3 6.6 6.6 6.7 6.5 6.3 6.3 6.3 6.1 6.7 6.9 6.7 6.7 6.9 6.7 6.8 6.6 6.2 6.2 6.3 6.3 6.4 6.7 6.9 6.5 6.1 5.9 5.4
7.7 7.8 7.8 7.0 7.0 6.5 7.8 7.8 7.4 7.0 7.1 7.0 6.8 6.6 6.8 6.7 7.0 6.1 5.9 6.0 6.1 6.2 5.9 6.4 6.6 7.0 7.2 7.0 6.9 6.8 6.8 6.8 7.1 7.0 7.1 6.5 6.2 6.7 6.9 5.8 5.2 5.2 4.8 4.5
7.5 7.6 7.5 7.2 6.4 7.1 7.4 7.4 7.0 6.8 6.8 6.8 6.6 6.4 6.3 6.8 6.7 6.6 6.0 5.9 6.0 6.1 6.1 6.1 6.2 6.5 7.1 6.6 6.6 6.4 6.7 6.5 6.8 7.0 6.5 6.4 6.8 6.7 6.4 5.8 5.7 5.4 5.4 5.0
7.4 7.6 7.6 7.4 6.7 6.8 6.9 7.1 6.8 6.7 6.8 6.5 6.4 6.4 6.4 6.5 6.5 6.5 6.3 5.8 5.7 5.7 6.0 5.8 6.5 6.2 6.5 6.7 6.4 6.3 6.4 6.5 6.4 6.0 5.7 5.8 5.4 5.8 5.6 5.5 5.4 5.7 5.8 5.7
7.4 7.6 7.1 7.3 7.6 7.3 7.1 6.8 6.7 6.7 6.6 6.4 6.4 6.3 6.3 6.3 6.2 6.7 6.0 6.2 5.5 5.5 5.6 6.3 6.4 6.1 6.4 6.2 6.2 6.0 6.1 6.0 6.1 5.8 5.6 5.5 5.4 5.4 5.1 5.0 4.9 5.0 5.3 5.8
7.8 7.7 7.4 7.3 7.7 7.3 7.0 7.1 6.9 6.4 6.3 6.3 6.5 6.5 6.5 6.3 6.3 6.4 6.3 6.0 5.9 5.6 5.5 5.7 6.0 6.3 6.2 6.1 6.0 5.8 5.9 5.9 6.1 5.8 5.4 5.3 5.4 5.4 5.3 5.2 5.3 5.1 4.8 4.7
7.8 7.9 7.8 7.7 7.8 7.5 7.1 6.9 6.8 6.4 6.1 6.2 6.4 6.3 6.4 6.3 6.2 6.3 6.1 5.9 5.9 5.9 5.8 5.9 6.0 6.1 6.1 6.0 5.9 6.0 5.8 5.6 5.8 5.7 5.7 5.6 5.5 5.3 5.4 5.4 5.5 5.0 4.4 4.3
7.9 7.8 7.7 7.5 7.5 7.2 7.1 6.8 6.7 6.5 6.4 6.2 6.1 6.1 6.3 6.2 6.1 5.7 5.9 5.8 6.0 5.9 5.7 5.5 5.4 5.3 5.5 5.6 5.5 5.4 5.7 5.8 5.8 5.8 6.0 6.0 5.8 5.6 5.6 5.6 5.3 5.0 4.9 4.9
Wind_Speed
3 4 8 12 10 12 5 6 12 16 16 4 11 8 10 10 5 3 10 11 16 20 25 23 24 23 19 19 18 21 20 20 15 12 12 11 11 7 6 7 13 12 13 15
5 6 13 11 8 11 10 10 14 12 8 2 8 9 6 6 7 5 2 6 19 23 19 20 20 21 22 24 20 20 22 20 17 13 13 9 10 4 7 6 9 14 16 16
6 11 12 6 12 12 11 6 6 5 4 4 2 8 7 11 6 5 3 1 7 5 10 19 20 24 22 22 24 22 23 22 20 18 11 4 4 3 4 7 8 10 13 13
5 4 7 9 7 4 2 3 3 9 7 6 5 5 8 5 9 5 4 6 12 12 12 4 19 20 22 24 24 23 22 22 20 19 15 16 13 13 12 11 8 7 11 11
8 7 11 10 8 2 8 3 4 4 6 4 8 3 8 6 8 8 10 10 8 10 9 11 8 7 14 18 18 21 22 20 21 21 19 15 14 11 9 8 7 9 8 12
8 5 4 10 9 4 5 3 8 5 4 3 8 5 4 6 7 8 8 12 15 7 8 3 6 9 13 21 20 18 20 21 20 20 19 20 18 14 9 10 9 8 7 9
7 3 4 8 9 10 10 6 4 5 5 6 2 3 7 6 5 3 7 12 13 15 7 6 3 9 13 6 16 15 19 19 19 21 19 20 19 16 14 13 11 10 9 7
3 8 6 9 4 5 8 5 4 6 4 8 5 2 3 6 6 4 5 10 15 13 12 12 14 9 13 14 7 5 6 8 13 22 20 17 16 11 10 10 9 9 10 10
2 5 5 8 6 3 10 7 5 2 2 3 2 4 4 3 4 8 10 11 12 12 14 9 10 11 5 10 12 11 6 6 8 11 10 14 13 14 11 8 9 8 9 8
0 3 3 5 6 2 2 6 6 4 4 4 5 1 4 6 7 8 12 8 4 4 8 12 8 7 4 4 9 7 11 8 9 12 14 12 12 13 11 7 9 8 9 9
2 3 7 5 4 5 9 6 4 2 3 2 2 5 6 4 3 7 7 8 7 5 5 8 11 10 5 8 11 8 2 9 18 14 15 14 13 12 12 11 8 9 10 11
3 5 1 6 6 10 6 4 3 3 7 3 3 6 1 3 1 3 5 8 7 5 5 4 6 8 5 6 3 6 8 13 17 15 16 14 14 10 14 15 14 11 10 9
3 2 4 9 7 7 3 5 3 2 2 5 2 6 3 4 1 4 4 5 5 5 4 6 9 11 12 7 14 11 12 12 13 13 15 16 15 16 16 15 8 6 9 7
7 3 5 5 6 5 7 13 10 1 1 4 5 4 3 5 6 4 5 6 2 3 1 3 3 6 8 10 9 13 16 18 13 7 2 2 5 5 5 6 7 7 7 4
4 1 1 4 5 5 9 12 13 10 9 4 5 4 4 6 6 7 6 4 5 5 4 4 3 5 3 5 5 6 5 10 5 11 11 11 8 4 4 5 5 4 6 8
3 2 1 3 7 8 10 9 7 5 4 2 3 4 4 6 4 2 5 6 5 0 5 1 4 5 5 4 5 4 0 9 5 5 9 10 10 14 12 5 8 7 6 6
3 3 2 6 7 8 6 3 3 2 2 2 3 5 6 3 4 3 7 6 6 3 2 4 4 2 3 3 2 2 4 4 2 5 6 5 6 10 11 8 6 6 9 9
6 3 4 6 1 6 4 3 1 5 5 4 6 7 7 3 2 4 4 3 6 1 4 4 3 3 4 4 4 2 4 4 4 4 4 1 4 5 5 5 2 5 4 5
11 6 2 3 5 5 2 2 1 1 5 7 5 9 6 1 2 2 2 2 3 3 1 4 6 5 7 7 6 6 6 6 7 9 9 6 2 0 6 3 4 5 4 2
7 5 5 3 3 6 5 3 3 4 3 1 1 6 6 6 4 4 4 6 2 4 4 6 6 9 9 7 7 8 6 6 10 10 8 7 8 9 6 2 2 5 3 5
3 3 3 3 2 7 3 5 2 2 5 3 2 5 4 3 5 3 5 6 5 4 6 4 6 9 7 6 6 7 6 8 6 8 7 7 7 6 6 5 3 3 3 4
1 0 2 2 4 6 4 2 3 6 2 6 6 5 6 6 9 4 5 6 6 4 7 7 8 7 6 6 5 6 7 3 6 6 5 6 4 4 3 4 4 5 4 3
2 6 3 7 5 6 6 7 5 6 6 5 5 9 9 7 7 4 1 3 4 5 2 4 7 7 5 3 5 4 2 2 4 5 5 5 5 5 5 5 5 4 5 4
4 4 4 3 3 6 7 4 4 6 6 6 4 2 2 3 6 3 2 1 3 4 3 1 6 7 3 3 3 2 3 4 5 3 2 3 4 6 5 3 3 4 4 4
6 1 2 4 6 5 3 3 4 4 5 2 2 2 2 5 5 4 3 3 3 4 3 3 5 6 4 2 2 2 2 3 4 4 4 5 4 5 5 4 2 3 2 2
3 6 4 6 7 4 5 2 7 7 4 8 3 1 3 4 6 5 4 3 4 5 3 5 4 5 2 2 1 3 3 2 3 4 4 4 4 4 3 2 4 4 4 3
Wind_Direction
293 109 241 239 211 231 223 248 265 273 278 267 278 281 283 296 344 134 172 183 215 216 212 204 197 190 187 194 172 178 180 185 179 184 183 180 181 181 188 195 198 203 204 203
353 258 247 244 230 234 243 260 271 282 258 73 308 297 304 331 309 292 304 188 210 215 227 219 195 190 190 192 186 179 183 182 186 185 189 187 181 178 182 193 201 202 200 200
196 246 270 256 262 249 256 229 246 265 310 315 30 328 330 311 312 39 35 118 155 190 236 214 199 190 192 192 193 187 184 181 186 184 180 138 118 111 179 191 196 203 201 199
246 261 319 311 308 197 323 245 341 321 19 309 90 287 308 286 295 336 320 344 45 48 23 256 195 201 190 198 197 190 187 181 182 179 178 184 189 199 207 209 203 183 198 207
254 302 306 303 256 317 249 243 294 298 322 21 316 72 270 18 335 325 329 359 94 74 41 45 51 319 223 218 201 203 187 185 180 181 184 185 192 202 197 201 190 199 191 200
254 281 290 263 289 263 258 5 19 37 75 9 268 133 325 350 297 333 354 356 358 33 74 327 211 276 228 214 205 196 197 189 182 180 184 188 190 192 182 189 199 203 200 204
321 283 283 23 19 351 28 44 329 347 357 234 258 65 223 269 322 322 310 347 5 353 9 348 27 67 42 241 213 202 192 196 186 184 185 190 191 192 190 190 197 195 204 204
146 321 15 356 70 251 284 152 159 275 243 272 334 254 218 226 247 259 345 21 17 7 341 7 340 37 66 46 20 179 227 246 213 186 188 189 193 191 199 192 199 202 208 210
106 275 319 48 343 18 324 352 229 231 22 61 241 353 316 310 338 2 21 30 34 6 358 350 345 0 5 79 47 26 12 245 220 222 225 193 194 194 194 197 200 204 206 210
246 323 299 319 21 16 101 274 346 8 339 306 311 204 240 319 326 335 359 3 11 339 341 344 352 331 314 148 110 47 13 347 267 206 205 209 207 197 197 184 200 201 199 200
86 92 296 26 35 303 338 342 7 114 147 202 240 262 219 227 285 315 336 331 313 8 313 319 336 314 289 261 129 123 46 349 317 217 206 205 208 204 193 198 199 192 191 190
206 139 249 253 262 268 189 258 113 93 298 246 177 268 115 111 333 324 359 321 350 0 1 307 327 345 297 278 87 100 349 337 316 213 201 203 194 199 206 199 200 192 190 188
200 1 6 346 349 354 23 344 8 190 88 253 174 275 96 40 16 244 270 331 39 22 15 344 357 4 350 354 19 18 357 338 314 219 198 199 197 201 208 211 186 168 191 194
63 87 144 184 228 254 309 322 323 74 354 264 230 270 274 317 310 322 336 354 10 181 11 306 6 30 354 356 28 20 355 339 318 223 26 104 62 83 60 66 66 85 74 86
100 155 12 266 257 289 295 309 321 316 281 236 269 206 285 281 288 305 298 272 235 274 108 312 34 67 55 19 323 77 360 304 264 104 97 91 64 2 66 84 105 91 100 95
4 255 312 274 290 280 288 315 332 327 352 16 295 281 240 290 280 313 319 321 337 37 111 265 298 59 57 41 12 16 277 245 309 106 123 121 101 82 339 267 173 147 179 136
174 167 61 271 275 312 309 252 315 250 245 246 275 253 334 291 306 359 327 348 349 85 89 117 85 35 47 52 63 243 258 307 0 103 97 101 127 155 164 211 255 220 201 164
221 182 134 264 28 269 231 206 208 262 244 228 292 293 298 275 206 237 250 298 337 295 80 89 132 222 78 40 29 61 350 27 39 53 73 98 126 119 93 101 39 321 345 296
205 143 198 192 187 263 160 243 228 107 278 38 319 335 340 216 302 326 295 341 311 320 346 101 105 80 63 53 27 31 20 17 41 33 31 9 2 192 101 128 221 223 193 248
55 61 132 89 201 214 229 240 186 142 279 297 251 301 328 344 12 264 305 303 330 69 30 67 101 98 75 49 47 44 21 23 38 39 23 29 26 26 40 338 289 272 240 277
11 355 113 140 40 292 209 257 141 176 244 234 246 285 345 289 211 258 316 298 300 137 124 100 80 79 80 67 71 57 38 24 17 40 21 24 17 18 24 348 331 265 250 75
316 260 237 77 174 267 184 263 210 219 200 224 229 251 253 251 280 251 261 283 281 129 122 110 90 71 68 67 63 67 65 3 36 24 23 36 6 31 17 41 352 356 7 108
219 164 228 179 220 231 220 210 220 185 210 231 214 237 222 202 239 272 311 229 122 93 69 110 113 108 80 66 63 46 353 1 42 15 355 355 353 22 26 32 22 39 43 60
262 187 212 42 279 230 230 208 226 204 233 245 249 212 255 238 188 161 131 345 83 89 117 117 112 106 107 100 103 111 45 41 58 40 5 360 5 359 357 14 36 52 46 58
219 146 228 255 278 307 0 194 202 274 321 297 213 223 128 130 134 160 163 110 79 90 87 82 86 89 84 105 54 3 30 54 55 46 14 9 11 15 340 341 14 58 65 113
200 210 171 228 236 193 259 334 5 343 2 356 285 88 99 117 120 120 109 151 141 119 123 93 78 95 97 85 11 331 341 29 36 21 4 344 350 343 341 358 2 28 41 85